STARLINK-1852 (47139 NORAD) Tracking and Keplerian Element Data

This shows tracking and keplerian element data for the satellite.

Feedback or suggestion? Click here.




ElementValue
Catalog47139
NameSTARLINK-1852
Epoch Orbit892
Epoch Day16.19296119
Epoch Year2021
RAAN100.2878
Inclination53.0488
Eccentricity0.0005546
Argument of Perigee261.3358
Mean Anonmoly98.7012
Mean Motion15.28135435
Decay Rate-0.00170907
L11 47139U 20088T 21016.19296119 -.00170907 00000-0 -62739-2 0 9995
L22 47139 53.0488 100.2878 0005546 261.3358 98.7012 15.28135435 8921

Live tracking and technical data element details for STARLINK-1852 (NORAD 47139). STARLINK-1852 can be tracked NOW for your location showing map with azimuth and elevation plus other details from your city location.

Track the satellite on the map from your city or location and see movement details for azimuth, elevation, latitude, longitude, range, height, and movement on the map or in text.







IsCatalogInMostPopularTable: catalog: 47139, numindb: 18
Update: records affected: 1



GetName: 47139 STARLINK-1852

Hit Count: updated at: Sun, 17 Jan 2021 09:40:50 GMT